Flag for Guatemala Weather past 2 weeks in Escuintla, Guatemala

Now
55 °F

Passing clouds.


Feels Like: 52 °F
Forecast: 61 / 92 °F
Wind: 14 mph from North

Location: Guatemala Aeropuertola Aurora

Current Time: Jan 27, 2015 at 2:48:17 AM

Latest Report: Jan 27, 2015 at 2:00 AM


Visibility: N/A

Pressure: 30.33 "Hg

Humidity: 82%

Dew point: 50 °F

Location of EscuintlaLocation

Historic Weather in Escuintla — Graph

°F

Escuintla temperature yesterday

Maximum temperature yesterday: 70 °F (at 2:00 PM)
Minimum temperature yesterday: 54 °F (at 3:00 AM)
Average temperature yesterday: 61 °F

Past Weeks' High & Low Weather Summary

 TemperatureHumidityPressure
High77 °F (Jan 20, 1:00 PM)100% (Jan 15, 3:00 AM)30.42 "Hg (Jan 15, 3:00 AM)
Low52 °F (Jan 20, 5:00 AM)42% (Jan 20, 1:00 PM)29.95 "Hg (Jan 25, 4:00 AM)
Average63 °F77%30.31 "Hg
* Reported Jan 12 2:00 AM — Jan 27 2:00 AM, Escuintla, Weather by CustomWeather, © 2014

Note: Actual official high and low records may vary slightly from our data, if they occured in-between our weather recording intervals... More about our weather records

Advertising

Escuintla weather history for previous 24 hours

 ConditionsComfort  
Time TempWeatherWind HumidityBarometerVisibility
2:00 AM
Jan 27
55 °FPassing clouds.14 mph82%30.33 "HgN/A
1:00 AM55 °FPassing clouds.14 mph88%30.36 "HgN/A
12:00 AM55 °FPassing clouds.14 mph88%30.36 "HgN/A
11:00 PM
Jan 26
57 °FPassing clouds.16 mph88%30.36 "HgN/A
10:00 PM57 °FPassing clouds.16 mph82%30.36 "HgN/A
9:00 PM59 °FPassing clouds.16 mph77%30.36 "HgN/A
8:00 PM61 °FPartly cloudy.16 mph72%30.33 "HgN/A
7:00 PM63 °FPassing clouds.18 mph68%30.30 "HgN/A
6:00 PM63 °FPassing clouds.16 mph68%30.27 "HgN/A
5:00 PM66 °FPartly sunny.18 mph60%30.27 "HgN/A
4:00 PM70 °FPartly sunny.18 mph53%30.27 "HgN/A
3:00 PM70 °FPartly sunny.21 mph53%30.27 "HgN/A
2:00 PM70 °FPartly sunny.21 mph53%30.27 "HgN/A
1:00 PM66 °FPartly sunny.21 mph60%30.30 "HgN/A
12:00 PM66 °FPartly sunny.21 mph64%30.33 "HgN/A
11:00 AM66 °FPartly sunny.21 mph64%30.36 "HgN/A
10:00 AM63 °FPartly sunny.21 mph73%30.36 "HgN/A
9:00 AM59 °FPartly sunny.18 mph77%30.36 "HgN/A
8:00 AM57 °FPartly sunny.16 mph82%30.36 "HgN/A
7:00 AM55 °FPartly sunny.16 mph88%30.33 "HgN/A
6:00 AM55 °FPassing clouds.16 mph88%30.33 "HgN/A
5:00 AM55 °FOvercast.14 mph94%30.30 "HgN/A
4:00 AM55 °FOvercast.14 mph88%30.30 "HgN/A
3:00 AM54 °FPassing clouds.16 mph94%30.30 "HgN/A
2:00 AM55 °FPassing clouds.16 mph88%30.30 "HgN/A
Weather by CustomWeather, © 2014

See weather overviewHow to use our weather pages